This is the latest recevied weather packets stored in our database for station/object W4SNA-3. If no packets are shown the sender has not sent any weather packets the latest 1 day(s).
| Time | Temp. | Humidity | Pressure | Rain* | Wind** | Luminosity | Snow |
|---|---|---|---|---|---|---|---|
| 1777994399 | 21.11° C | 57% | 1014.8 hPa | 0 mm | 0 m/s | - | - |
| 1777994099 | 20.56° C | 60% | 1015 hPa | 0 mm | 0 m/s | - | - |
| 1777993799 | 21.11° C | 56% | 1015.1 hPa | 0 mm | 0 m/s | - | - |
| 1777993527 | 21.11° C | 55% | 1015 hPa | 0 mm | 0 m/s | - | - |
| 1777993199 | 21.11° C | 53% | 1014.9 hPa | 0 mm | 0 m/s | - | - |
| 1777992899 | 21.11° C | 54% | 1014.9 hPa | 0 mm | 0 m/s | - | - |
| 1777992606 | 21.11° C | 55% | 1014.9 hPa | 0 mm | 0 m/s | - | - |
| 1777992347 | 21.11° C | 54% | 1014.8 hPa | 0 mm | 0 m/s | - | - |
| 1777991999 | 21.11° C | 51% | 1014.8 hPa | 0 mm | 0 m/s | - | - |
| 1777991699 | 21.11° C | 52% | 1014.7 hPa | 0 mm | 0 m/s | - | - |
| 1777991399 | 21.11° C | 55% | 1014.8 hPa | 0 mm | 0 m/s | - | - |
| 1777991099 | 20.56° C | 57% | 1014.7 hPa | 0 mm | 0 m/s | - | - |
| 1777990762 | 20.56° C | 55% | 1014.6 hPa | 0 mm | 0 m/s | - | - |
| 1777990464 | 20.56° C | 56% | 1014.4 hPa | 0 mm | 0 m/s | - | - |
| 1777990163 | 20.56° C | 56% | 1014.5 hPa | 0 mm | 0 m/s | - | - |
| 1777989862 | 20.56° C | 51% | 1014.6 hPa | 0 mm | 0 m/s | - | - |
| 1777989570 | 20.56° C | 53% | 1014.7 hPa | 0 mm | 0 m/s | - | - |
| 1777989313 | 20.56° C | 47% | 1014.7 hPa | 0 mm | 0 m/s | - | - |
| 1777988962 | 20.56° C | 47% | 1014.7 hPa | 0 mm | 0 m/s | - | - |
| 1777988662 | 20.56° C | 45% | 1014.8 hPa | 0 mm | 0 m/s | - | - |
| 1777988370 | 20.56° C | 49% | 1014.8 hPa | 0 mm | 0 m/s | - | - |
| 1777988062 | 20.56° C | 48% | 1014.7 hPa | 0 mm | 0 m/s | - | - |
| 1777987762 | 20° C | 46% | 1014.7 hPa | 0 mm | 0 m/s | - | - |
| 1777987466 | 20° C | 48% | 1014.7 hPa | 0 mm | 0 m/s | - | - |
| 1777987191 | 19.44° C | 50% | 1014.5 hPa | 0 mm | 0 m/s | - | - |
* Rain latest hour (hover to see other rain measurements)
** Current wind speed in m/s (hover to see current wind gust speed)